Location: *
(57.8420°S, 159.8600°W)
Time: 03:49:20
(UTC+00:00)

Cosmos 1898 Rocket - Pass Details

Date: 18 May 2021
Orbit: 753 x 784 km, 74.0° (Epoch: 20 June)

Event Time Altitude Azimuth Distance (km) Brightness Sun altitude
Rises 04:32:52 0° 211° (SSW) 3,253 7.0 -16.1°
Reaches altitude 10° 04:35:17 10° 207° (SSW) 2,323 6.2 -16.4°
Maximum altitude 04:40:32 65° 125° (SE) 851 3.5 -17.1°
Enters shadow 04:45:21 12° 43° (NE) 2,162 5.5 -17.7°
